User: anonymous   Login
Location: Caltech
(34.1382°N, 118.1253°W)
Time: 06:41:26
(UTC-07:00)
Language:

BREEZE M DEB (TANK) - Orbit

View from above orbital plane
View from above orbital plane
View from above satellite
View from above satellite

Ground track
Ground track

The orbit data is extracted from the following two-line orbital elements,

1 33437U 08057B   16271.91923828  .00001188  00000-0  27076-3 0  9992
2 33437  49.5856 110.6403 4997779 244.8940  56.0801  5.59663560159164
Epoch (UTC): 27 September 2016 22:03:42
Eccentricity: 0.4997779
inclination: 49.5856°
perigee height: 325 km
apogee height: 13719 km
right ascension of ascending node: 110.6403°
argument of perigee: 244.8940°
revolutions per day: 5.59663560
mean anomaly at epoch: 56.0801°
orbit number at epoch: 15916

The dashed part of the orbit path shows where the satellite is in the earth's shadow,  

DLR